Year,Month,Day,Hour,Minute,Value (Times are PST for temperature in C)
2016,08,18,00,00,13.60
2016,08,18,00,01,13.60
2016,08,18,00,02,13.60
2016,08,18,00,03,13.60
2016,08,18,00,04,13.60
2016,08,18,00,05,13.60
2016,08,18,00,06,13.60
2016,08,18,00,07,13.60
2016,08,18,00,08,13.60
2016,08,18,00,09,13.60
2016,08,18,00,10,13.60
2016,08,18,00,11,13.60
2016,08,18,00,12,13.60
2016,08,18,00,13,13.60
2016,08,18,00,14,13.60
2016,08,18,00,15,13.60
2016,08,18,00,16,13.60
2016,08,18,00,17,13.60
2016,08,18,00,18,13.60
2016,08,18,00,19,13.60
2016,08,18,00,20,13.60
2016,08,18,00,21,13.60
2016,08,18,00,22,13.60
2016,08,18,00,23,13.70
2016,08,18,00,24,13.70
2016,08,18,00,25,13.70
2016,08,18,00,26,13.70
2016,08,18,00,27,13.70
2016,08,18,00,28,13.80
2016,08,18,00,29,13.80
2016,08,18,00,30,13.80
2016,08,18,00,31,13.80
2016,08,18,00,32,13.80
2016,08,18,00,33,13.80
2016,08,18,00,34,13.80
2016,08,18,00,35,13.80
2016,08,18,00,36,13.80
2016,08,18,00,37,13.80
2016,08,18,00,38,13.80
2016,08,18,00,39,13.80
2016,08,18,00,40,13.80
2016,08,18,00,41,13.80
2016,08,18,00,42,13.70
2016,08,18,00,43,13.70
2016,08,18,00,44,13.70
2016,08,18,00,45,13.70
2016,08,18,00,46,13.70
2016,08,18,00,47,13.70
2016,08,18,00,48,13.70
2016,08,18,00,49,13.70
2016,08,18,00,50,13.70
2016,08,18,00,51,13.70
2016,08,18,00,52,13.70
2016,08,18,00,53,13.70
2016,08,18,00,54,13.70
2016,08,18,00,55,13.60
2016,08,18,00,56,13.60
2016,08,18,00,57,13.60
2016,08,18,00,58,13.60
2016,08,18,00,59,13.60
2016,08,18,01,00,13.60
2016,08,18,01,01,13.70
2016,08,18,01,02,13.70
2016,08,18,01,03,13.70
2016,08,18,01,04,13.70
2016,08,18,01,05,13.70
2016,08,18,01,06,13.70
2016,08,18,01,07,13.60
2016,08,18,01,08,13.60
2016,08,18,01,09,13.60
2016,08,18,01,10,13.60
2016,08,18,01,11,13.60
2016,08,18,01,12,13.60
2016,08,18,01,13,13.60
2016,08,18,01,14,13.70
2016,08,18,01,15,13.70
2016,08,18,01,16,13.70
2016,08,18,01,17,13.70
2016,08,18,01,18,13.70
2016,08,18,01,19,13.70
2016,08,18,01,20,13.70
2016,08,18,01,21,13.70
2016,08,18,01,22,13.70
2016,08,18,01,23,13.70
2016,08,18,01,24,13.70
2016,08,18,01,25,13.70
2016,08,18,01,26,13.70
2016,08,18,01,27,13.70
2016,08,18,01,28,13.70
2016,08,18,01,29,13.70
2016,08,18,01,30,13.70
2016,08,18,01,31,13.60
2016,08,18,01,32,13.60
2016,08,18,01,33,13.60
2016,08,18,01,34,13.60
2016,08,18,01,35,13.60
2016,08,18,01,36,13.70
2016,08,18,01,37,13.70
2016,08,18,01,38,13.60
2016,08,18,01,39,13.60
2016,08,18,01,40,13.70
2016,08,18,01,41,13.70
2016,08,18,01,42,13.70
2016,08,18,01,43,13.70
2016,08,18,01,44,13.70
2016,08,18,01,45,13.70
2016,08,18,01,46,13.70
2016,08,18,01,47,13.70
2016,08,18,01,48,13.70
2016,08,18,01,49,13.70
2016,08,18,01,50,13.70
2016,08,18,01,51,13.70
2016,08,18,01,52,13.80
2016,08,18,01,53,13.80
2016,08,18,01,54,13.80
2016,08,18,01,55,13.80
2016,08,18,01,56,13.80
2016,08,18,01,57,13.70
2016,08,18,01,58,13.70
2016,08,18,01,59,13.70
2016,08,18,02,00,13.70
2016,08,18,02,01,13.70
2016,08,18,02,02,13.60
2016,08,18,02,03,13.60
2016,08,18,02,04,13.60
2016,08,18,02,05,13.60
2016,08,18,02,06,13.60
2016,08,18,02,07,13.60
2016,08,18,02,08,13.60
2016,08,18,02,09,13.60
2016,08,18,02,10,13.60
2016,08,18,02,11,13.60
2016,08,18,02,12,13.60
2016,08,18,02,13,13.60
2016,08,18,02,14,13.60
2016,08,18,02,15,13.60
2016,08,18,02,16,13.60
2016,08,18,02,17,13.60
2016,08,18,02,18,13.60
2016,08,18,02,19,13.60
2016,08,18,02,20,13.50
2016,08,18,02,21,13.50
2016,08,18,02,22,13.50
2016,08,18,02,23,13.50
2016,08,18,02,24,13.40
2016,08,18,02,25,13.40
2016,08,18,02,26,13.40
2016,08,18,02,27,13.50
2016,08,18,02,28,13.50
2016,08,18,02,29,13.50
2016,08,18,02,30,13.50
2016,08,18,02,31,13.50
2016,08,18,02,32,13.50
2016,08,18,02,33,13.60
2016,08,18,02,34,13.60
2016,08,18,02,35,13.60
2016,08,18,02,36,13.60
2016,08,18,02,37,13.60
2016,08,18,02,38,13.50
2016,08,18,02,39,13.50
2016,08,18,02,40,13.50
2016,08,18,02,41,13.40
2016,08,18,02,42,13.40
2016,08,18,02,43,13.40
2016,08,18,02,44,13.40
2016,08,18,02,45,13.30
2016,08,18,02,46,13.30
2016,08,18,02,47,13.30
2016,08,18,02,48,13.30
2016,08,18,02,49,13.30
2016,08,18,02,50,13.30
2016,08,18,02,51,13.30
2016,08,18,02,52,13.30
2016,08,18,02,53,13.40
2016,08,18,02,54,13.30
2016,08,18,02,55,13.40
2016,08,18,02,56,13.40
2016,08,18,02,57,13.30
2016,08,18,02,58,13.30
2016,08,18,02,59,13.30
2016,08,18,03,00,13.30
2016,08,18,03,01,13.30
2016,08,18,03,02,13.30
2016,08,18,03,03,13.30
2016,08,18,03,04,13.30
2016,08,18,03,05,13.30
2016,08,18,03,06,13.30
2016,08,18,03,07,13.30
2016,08,18,03,08,13.30
2016,08,18,03,09,13.30
2016,08,18,03,10,13.30
2016,08,18,03,11,13.30
2016,08,18,03,12,13.30
2016,08,18,03,13,13.30
2016,08,18,03,14,13.30
2016,08,18,03,15,13.30
2016,08,18,03,16,13.30
2016,08,18,03,17,13.30
2016,08,18,03,18,13.30
2016,08,18,03,19,13.30
2016,08,18,03,20,13.30
2016,08,18,03,21,13.30
2016,08,18,03,22,13.30
2016,08,18,03,23,13.30
2016,08,18,03,24,13.30
2016,08,18,03,25,13.30
2016,08,18,03,26,13.30
2016,08,18,03,27,13.30
2016,08,18,03,28,13.20
2016,08,18,03,29,13.20
2016,08,18,03,30,13.20
2016,08,18,03,31,13.20
2016,08,18,03,32,13.20
2016,08,18,03,33,13.20
2016,08,18,03,34,13.20
2016,08,18,03,35,13.20
2016,08,18,03,36,13.20
2016,08,18,03,37,13.20
2016,08,18,03,38,13.20
2016,08,18,03,39,13.20
2016,08,18,03,40,13.20
2016,08,18,03,41,13.20
2016,08,18,03,42,13.20
2016,08,18,03,43,13.20
2016,08,18,03,44,13.20
2016,08,18,03,45,13.20
2016,08,18,03,46,13.20
2016,08,18,03,47,13.10
2016,08,18,03,48,13.10
2016,08,18,03,49,13.10
2016,08,18,03,50,13.10
2016,08,18,03,51,13.10
2016,08,18,03,52,13.10
2016,08,18,03,53,13.10
2016,08,18,03,54,13.10
2016,08,18,03,55,13.10
2016,08,18,03,56,13.10
2016,08,18,03,57,13.10
2016,08,18,03,58,13.10
2016,08,18,03,59,13.10
2016,08,18,04,00,13.10
2016,08,18,04,01,13.10
2016,08,18,04,02,13.10
2016,08,18,04,03,13.10
2016,08,18,04,04,13.00
2016,08,18,04,05,13.00
2016,08,18,04,06,13.00
2016,08,18,04,07,13.00
2016,08,18,04,08,13.00
2016,08,18,04,09,13.00
2016,08,18,04,10,13.00
2016,08,18,04,11,13.00
2016,08,18,04,12,13.00
2016,08,18,04,13,13.00
2016,08,18,04,14,13.00
2016,08,18,04,15,13.00
2016,08,18,04,16,13.00
2016,08,18,04,17,12.90
2016,08,18,04,18,12.90
2016,08,18,04,19,12.90
2016,08,18,04,20,12.80
2016,08,18,04,21,12.80
2016,08,18,04,22,12.80
2016,08,18,04,23,12.70
2016,08,18,04,24,12.70
2016,08,18,04,25,12.70
2016,08,18,04,26,12.70
2016,08,18,04,27,12.70
2016,08,18,04,28,12.70
2016,08,18,04,29,12.70
2016,08,18,04,30,12.70
2016,08,18,04,31,12.80
2016,08,18,04,32,12.80
2016,08,18,04,33,12.80
2016,08,18,04,34,12.80
2016,08,18,04,35,12.80
2016,08,18,04,36,12.80
2016,08,18,04,37,12.80
2016,08,18,04,38,12.80
2016,08,18,04,39,12.80
2016,08,18,04,40,12.80
2016,08,18,04,41,12.80
2016,08,18,04,42,12.80
2016,08,18,04,43,12.80
2016,08,18,04,44,12.80
2016,08,18,04,45,12.80
2016,08,18,04,46,12.80
2016,08,18,04,47,12.80
2016,08,18,04,48,12.80
2016,08,18,04,49,12.80
2016,08,18,04,50,12.80
2016,08,18,04,51,12.80
2016,08,18,04,52,12.80
2016,08,18,04,53,12.80
2016,08,18,04,54,12.80
2016,08,18,04,55,12.70
2016,08,18,04,56,12.70
2016,08,18,04,57,12.70
2016,08,18,04,58,12.70
2016,08,18,04,59,12.70
2016,08,18,05,00,12.70
2016,08,18,05,01,12.70
2016,08,18,05,02,12.70
2016,08,18,05,03,12.70
2016,08,18,05,04,12.80
2016,08,18,05,05,12.80
2016,08,18,05,06,12.80
2016,08,18,05,07,12.80
2016,08,18,05,08,12.80
2016,08,18,05,09,12.80
2016,08,18,05,10,12.80
2016,08,18,05,11,12.80
2016,08,18,05,12,12.80
2016,08,18,05,13,12.80
2016,08,18,05,14,12.80
2016,08,18,05,15,12.80
2016,08,18,05,16,12.80
2016,08,18,05,17,12.80
2016,08,18,05,18,12.80
2016,08,18,05,19,12.80
2016,08,18,05,20,12.80
2016,08,18,05,21,12.80
2016,08,18,05,22,12.70
2016,08,18,05,23,12.70
2016,08,18,05,24,12.70
2016,08,18,05,25,12.70
2016,08,18,05,26,12.70
2016,08,18,05,27,12.60
2016,08,18,05,28,12.60
2016,08,18,05,29,12.60
2016,08,18,05,30,12.60
2016,08,18,05,31,12.60
2016,08,18,05,32,12.60
2016,08,18,05,33,12.60
2016,08,18,05,34,12.50
2016,08,18,05,35,12.50
2016,08,18,05,36,12.50
2016,08,18,05,37,12.50
2016,08,18,05,38,12.40
2016,08,18,05,39,12.40
2016,08,18,05,40,12.40
2016,08,18,05,41,12.40
2016,08,18,05,42,12.50
2016,08,18,05,43,12.50
2016,08,18,05,44,12.50
2016,08,18,05,45,12.50
2016,08,18,05,46,12.50
2016,08,18,05,47,12.40
2016,08,18,05,48,12.40
2016,08,18,05,49,12.40
2016,08,18,05,50,12.50
2016,08,18,05,51,12.50
2016,08,18,05,52,12.60
2016,08,18,05,53,12.60
2016,08,18,05,54,12.60
2016,08,18,05,55,12.60
2016,08,18,05,56,12.60
2016,08,18,05,57,12.60
2016,08,18,05,58,12.60
2016,08,18,05,59,12.60
2016,08,18,06,00,12.60
2016,08,18,06,01,12.60
2016,08,18,06,02,12.60
2016,08,18,06,03,12.70
2016,08,18,06,04,12.70
2016,08,18,06,05,12.70
2016,08,18,06,06,12.70
2016,08,18,06,07,12.60
2016,08,18,06,08,12.60
2016,08,18,06,09,12.60
2016,08,18,06,10,12.60
2016,08,18,06,11,12.60
2016,08,18,06,12,12.60
2016,08,18,06,13,12.60
2016,08,18,06,14,12.60
2016,08,18,06,15,12.60
2016,08,18,06,16,12.60
2016,08,18,06,17,12.60
2016,08,18,06,18,12.60
2016,08,18,06,19,12.60
2016,08,18,06,20,12.60
2016,08,18,06,21,12.50
2016,08,18,06,22,12.50
2016,08,18,06,23,12.50
2016,08,18,06,24,12.50
2016,08,18,06,25,12.50
2016,08,18,06,26,12.60
2016,08,18,06,27,12.60
2016,08,18,06,28,12.50
2016,08,18,06,29,12.40
2016,08,18,06,30,12.40
2016,08,18,06,31,12.40
2016,08,18,06,32,12.40
2016,08,18,06,33,12.40
2016,08,18,06,34,12.40
2016,08,18,06,35,12.40
2016,08,18,06,36,12.40
2016,08,18,06,37,12.40
2016,08,18,06,38,12.40
2016,08,18,06,39,12.40
2016,08,18,06,40,12.40
2016,08,18,06,41,12.40
2016,08,18,06,42,12.40
2016,08,18,06,43,12.40
2016,08,18,06,44,12.40
2016,08,18,06,45,12.40
2016,08,18,06,46,12.40
2016,08,18,06,47,12.40
2016,08,18,06,48,12.40
2016,08,18,06,49,12.40
2016,08,18,06,50,12.40
2016,08,18,06,51,12.30
2016,08,18,06,52,12.30
2016,08,18,06,53,12.30
2016,08,18,06,54,12.30
2016,08,18,06,55,12.30
2016,08,18,06,56,12.30
2016,08,18,06,57,12.30
2016,08,18,06,58,12.30
2016,08,18,06,59,12.30
2016,08,18,07,00,12.30
2016,08,18,07,01,12.30
2016,08,18,07,02,12.30
2016,08,18,07,03,12.30
2016,08,18,07,04,12.30
2016,08,18,07,05,12.30
2016,08,18,07,06,12.30
2016,08,18,07,07,12.30
2016,08,18,07,08,12.40
2016,08,18,07,09,12.40
2016,08,18,07,10,12.40
2016,08,18,07,11,12.30
2016,08,18,07,12,12.30
2016,08,18,07,13,12.30
2016,08,18,07,14,12.30
2016,08,18,07,15,12.30
2016,08,18,07,16,12.30
2016,08,18,07,17,12.30
2016,08,18,07,18,12.30
2016,08,18,07,19,12.30
2016,08,18,07,20,12.40
2016,08,18,07,21,12.40
2016,08,18,07,22,12.40
2016,08,18,07,23,12.40
2016,08,18,07,24,12.40
2016,08,18,07,25,12.40
2016,08,18,07,26,12.50
2016,08,18,07,27,12.50
2016,08,18,07,28,12.50
2016,08,18,07,29,12.50
2016,08,18,07,30,12.50
2016,08,18,07,31,12.50
2016,08,18,07,32,12.50
2016,08,18,07,33,12.50
2016,08,18,07,34,12.50
2016,08,18,07,35,12.50
2016,08,18,07,36,12.60
2016,08,18,07,37,12.70
2016,08,18,07,38,12.70
2016,08,18,07,39,12.80
2016,08,18,07,40,12.90
2016,08,18,07,41,13.00
2016,08,18,07,42,13.10
2016,08,18,07,43,13.20
2016,08,18,07,44,13.30
2016,08,18,07,45,13.30
2016,08,18,07,46,13.40
2016,08,18,07,47,13.50
2016,08,18,07,48,13.60
2016,08,18,07,49,13.70
2016,08,18,07,50,13.80
2016,08,18,07,51,13.80
2016,08,18,07,52,13.90
2016,08,18,07,53,14.00
2016,08,18,07,54,14.10
2016,08,18,07,55,14.20
2016,08,18,07,56,14.30
2016,08,18,07,57,14.30
2016,08,18,07,58,14.40
2016,08,18,07,59,14.50
2016,08,18,08,00,14.60
2016,08,18,08,01,14.70
2016,08,18,08,02,14.80
2016,08,18,08,03,14.80
2016,08,18,08,04,14.90
2016,08,18,08,05,15.00
2016,08,18,08,06,15.10
2016,08,18,08,07,15.20
2016,08,18,08,08,15.30
2016,08,18,08,09,15.40
2016,08,18,08,10,15.50
2016,08,18,08,11,15.60
2016,08,18,08,12,15.70
2016,08,18,08,13,15.80
2016,08,18,08,14,15.90
2016,08,18,08,15,15.90
2016,08,18,08,16,16.00
2016,08,18,08,17,16.10
2016,08,18,08,18,16.10
2016,08,18,08,19,16.10
2016,08,18,08,20,16.10
2016,08,18,08,21,16.00
2016,08,18,08,22,16.10
2016,08,18,08,23,16.10
2016,08,18,08,24,16.10
2016,08,18,08,25,16.20
2016,08,18,08,26,16.30
2016,08,18,08,27,16.30
2016,08,18,08,28,16.30
2016,08,18,08,29,16.30
2016,08,18,08,30,16.40
2016,08,18,08,31,16.40
2016,08,18,08,32,16.40
2016,08,18,08,33,16.40
2016,08,18,08,34,16.40
2016,08,18,08,35,16.40
2016,08,18,08,36,16.50
2016,08,18,08,37,16.60
2016,08,18,08,38,16.70
2016,08,18,08,39,16.80
2016,08,18,08,40,17.00
2016,08,18,08,41,17.10
2016,08,18,08,42,17.30
2016,08,18,08,43,17.40
2016,08,18,08,44,17.50
2016,08,18,08,45,17.70
2016,08,18,08,46,17.80
2016,08,18,08,47,17.90
2016,08,18,08,48,18.10
2016,08,18,08,49,18.20
2016,08,18,08,50,18.40
2016,08,18,08,51,18.50
2016,08,18,08,52,18.60
2016,08,18,08,53,18.70
2016,08,18,08,54,18.70
2016,08,18,08,55,18.70
2016,08,18,08,56,18.70
2016,08,18,08,57,18.70
2016,08,18,08,58,18.70
2016,08,18,08,59,18.70
2016,08,18,09,00,18.80
2016,08,18,09,01,18.90
2016,08,18,09,02,19.00
2016,08,18,09,03,19.10
2016,08,18,09,04,19.20
2016,08,18,09,05,19.30
2016,08,18,09,06,19.40
2016,08,18,09,07,19.50
2016,08,18,09,08,19.70
2016,08,18,09,09,19.80
2016,08,18,09,10,19.90
2016,08,18,09,11,20.00
2016,08,18,09,12,20.10
2016,08,18,09,13,20.20
2016,08,18,09,14,20.30
2016,08,18,09,15,20.30
2016,08,18,09,16,20.40
2016,08,18,09,17,20.50
2016,08,18,09,18,20.50
2016,08,18,09,19,20.50
2016,08,18,09,20,20.50
2016,08,18,09,21,20.60
2016,08,18,09,22,20.50
2016,08,18,09,23,20.50
2016,08,18,09,24,20.50
2016,08,18,09,25,20.40
2016,08,18,09,26,20.40
2016,08,18,09,27,20.40
2016,08,18,09,28,20.50
2016,08,18,09,29,20.50
2016,08,18,09,30,20.50
2016,08,18,09,31,20.60
2016,08,18,09,32,20.60
2016,08,18,09,33,20.70
2016,08,18,09,34,20.70
2016,08,18,09,35,20.80
2016,08,18,09,36,20.80
2016,08,18,09,37,20.80
2016,08,18,09,38,20.90
2016,08,18,09,39,21.00
2016,08,18,09,40,21.10
2016,08,18,09,41,21.20
2016,08,18,09,42,21.30
2016,08,18,09,43,21.40
2016,08,18,09,44,21.50
2016,08,18,09,45,21.70
2016,08,18,09,46,21.80
2016,08,18,09,47,22.00
2016,08,18,09,48,22.10
2016,08,18,09,49,22.30
2016,08,18,09,50,22.40
2016,08,18,09,51,22.50
2016,08,18,09,52,22.70
2016,08,18,09,53,22.80
2016,08,18,09,54,22.80
2016,08,18,09,55,22.90
2016,08,18,09,56,23.00
2016,08,18,09,57,23.00
2016,08,18,09,58,23.10
2016,08,18,09,59,23.20
2016,08,18,10,00,23.30
2016,08,18,10,01,23.40
2016,08,18,10,02,23.50
2016,08,18,10,03,23.60
2016,08,18,10,04,23.60
2016,08,18,10,05,23.60
2016,08,18,10,06,23.60
2016,08,18,10,07,23.60
2016,08,18,10,08,23.60
2016,08,18,10,09,23.60
2016,08,18,10,10,23.60
2016,08,18,10,11,23.60
2016,08,18,10,12,23.70
2016,08,18,10,13,23.80
2016,08,18,10,14,23.90
2016,08,18,10,15,24.00
2016,08,18,10,16,24.00
2016,08,18,10,17,24.20
2016,08,18,10,18,24.20
2016,08,18,10,19,24.30
2016,08,18,10,20,24.40
2016,08,18,10,21,24.50
2016,08,18,10,22,24.60
2016,08,18,10,23,24.60
2016,08,18,10,24,24.60
2016,08,18,10,25,24.60
2016,08,18,10,26,24.60
2016,08,18,10,27,24.70
2016,08,18,10,28,24.70
2016,08,18,10,29,24.80
2016,08,18,10,30,24.70
2016,08,18,10,31,24.70
2016,08,18,10,32,24.70
2016,08,18,10,33,24.70
2016,08,18,10,34,24.60
2016,08,18,10,35,24.60
2016,08,18,10,36,24.60
2016,08,18,10,37,24.60
2016,08,18,10,38,24.70
2016,08,18,10,39,24.70
2016,08,18,10,40,24.80
2016,08,18,10,41,24.80
2016,08,18,10,42,24.80
2016,08,18,10,43,24.80
2016,08,18,10,44,24.80
2016,08,18,10,45,24.90
2016,08,18,10,46,25.00
2016,08,18,10,47,25.00
2016,08,18,10,48,25.10
2016,08,18,10,49,25.10
2016,08,18,10,50,25.20
2016,08,18,10,51,25.20
2016,08,18,10,52,25.20
2016,08,18,10,53,25.30
2016,08,18,10,54,25.40
2016,08,18,10,55,25.40
2016,08,18,10,56,25.50
2016,08,18,10,57,25.50
2016,08,18,10,58,25.60
2016,08,18,10,59,25.60
2016,08,18,11,00,25.60
2016,08,18,11,01,25.50
2016,08,18,11,02,25.50
2016,08,18,11,03,25.50
2016,08,18,11,04,25.50
2016,08,18,11,05,25.60
2016,08,18,11,06,25.70
2016,08,18,11,07,25.80
2016,08,18,11,08,25.90
2016,08,18,11,09,25.90
2016,08,18,11,10,26.00
2016,08,18,11,11,26.10
2016,08,18,11,12,26.10
2016,08,18,11,13,26.20
2016,08,18,11,14,26.20
2016,08,18,11,15,26.20
2016,08,18,11,16,26.20
2016,08,18,11,17,26.20
2016,08,18,11,18,26.20
2016,08,18,11,19,26.20
2016,08,18,11,20,26.20
2016,08,18,11,21,26.20
2016,08,18,11,22,26.10
2016,08,18,11,23,26.00
2016,08,18,11,24,26.00
2016,08,18,11,25,25.90
2016,08,18,11,26,25.90
2016,08,18,11,27,25.90
2016,08,18,11,28,25.90
2016,08,18,11,29,25.90
2016,08,18,11,30,25.90
2016,08,18,11,31,25.90
2016,08,18,11,32,25.90
2016,08,18,11,33,25.80
2016,08,18,11,34,25.80
2016,08,18,11,35,25.80
2016,08,18,11,36,25.80
2016,08,18,11,37,25.80
2016,08,18,11,38,25.80
2016,08,18,11,39,25.80
2016,08,18,11,40,25.80
2016,08,18,11,41,25.80
2016,08,18,11,42,25.80
2016,08,18,11,43,25.80
2016,08,18,11,44,25.90
2016,08,18,11,45,26.00
2016,08,18,11,46,26.00
2016,08,18,11,47,26.10
2016,08,18,11,48,26.10
2016,08,18,11,49,26.20
2016,08,18,11,50,26.30
2016,08,18,11,51,26.40
2016,08,18,11,52,26.40
2016,08,18,11,53,26.40
2016,08,18,11,54,26.40
2016,08,18,11,55,26.30
2016,08,18,11,56,26.30
2016,08,18,11,57,26.30
2016,08,18,11,58,26.30
2016,08,18,11,59,26.30
2016,08,18,12,00,26.30
2016,08,18,12,01,26.30
2016,08,18,12,02,26.40
2016,08,18,12,03,26.40
2016,08,18,12,04,26.40
2016,08,18,12,05,26.40
2016,08,18,12,06,26.50
2016,08,18,12,07,26.60
2016,08,18,12,08,26.60
2016,08,18,12,09,26.70
2016,08,18,12,10,26.70
2016,08,18,12,11,26.70
2016,08,18,12,12,26.80
2016,08,18,12,13,26.80
2016,08,18,12,14,26.90
2016,08,18,12,15,26.90
2016,08,18,12,16,27.00
2016,08,18,12,17,27.10
2016,08,18,12,18,27.10
2016,08,18,12,19,27.00
2016,08,18,12,20,27.00
2016,08,18,12,21,27.00
2016,08,18,12,22,26.90
2016,08,18,12,23,26.90
2016,08,18,12,24,27.00
2016,08,18,12,25,27.00
2016,08,18,12,26,27.00
2016,08,18,12,27,27.00
2016,08,18,12,28,27.10
2016,08,18,12,29,27.20
2016,08,18,12,30,27.20
2016,08,18,12,31,27.20
2016,08,18,12,32,27.20
2016,08,18,12,33,27.20
2016,08,18,12,34,27.20
2016,08,18,12,35,27.20
2016,08,18,12,36,27.20
2016,08,18,12,37,27.20
2016,08,18,12,38,27.20
2016,08,18,12,39,27.20
2016,08,18,12,40,27.20
2016,08,18,12,41,27.30
2016,08,18,12,42,27.30
2016,08,18,12,43,27.30
2016,08,18,12,44,27.30
2016,08,18,12,45,27.30
2016,08,18,12,46,27.30
2016,08,18,12,47,27.30
2016,08,18,12,48,27.40
2016,08,18,12,49,27.40
2016,08,18,12,50,27.40
2016,08,18,12,51,27.40
2016,08,18,12,52,27.40
2016,08,18,12,53,27.60
2016,08,18,12,54,27.60
2016,08,18,12,55,27.70
2016,08,18,12,56,27.70
2016,08,18,12,57,27.60
2016,08,18,12,58,27.70
2016,08,18,12,59,27.70
2016,08,18,13,00,27.70
2016,08,18,13,01,27.80
2016,08,18,13,02,27.80
2016,08,18,13,03,27.90
2016,08,18,13,04,27.90
2016,08,18,13,05,28.00
2016,08,18,13,06,28.10
2016,08,18,13,07,28.10
2016,08,18,13,08,28.20
2016,08,18,13,09,28.30
2016,08,18,13,10,28.30
2016,08,18,13,11,28.30
2016,08,18,13,12,28.30
2016,08,18,13,13,28.30
2016,08,18,13,14,28.30
2016,08,18,13,15,28.30
2016,08,18,13,16,28.30
2016,08,18,13,17,28.30
2016,08,18,13,18,28.30
2016,08,18,13,19,28.40
2016,08,18,13,20,28.40
2016,08,18,13,21,28.40
2016,08,18,13,22,28.40
2016,08,18,13,23,28.40
2016,08,18,13,24,28.50
2016,08,18,13,25,28.50
2016,08,18,13,26,28.60
2016,08,18,13,27,28.70
2016,08,18,13,28,28.70
2016,08,18,13,29,28.70
2016,08,18,13,30,28.60
2016,08,18,13,31,28.60
2016,08,18,13,32,28.60
2016,08,18,13,33,28.60
2016,08,18,13,34,28.70
2016,08,18,13,35,28.70
2016,08,18,13,36,28.70
2016,08,18,13,37,28.80
2016,08,18,13,38,28.80
2016,08,18,13,39,28.90
2016,08,18,13,40,28.90
2016,08,18,13,41,28.90
2016,08,18,13,42,28.90
2016,08,18,13,43,29.00
2016,08,18,13,44,29.10
2016,08,18,13,45,29.00
2016,08,18,13,46,29.00
2016,08,18,13,47,29.00
2016,08,18,13,48,29.00
2016,08,18,13,49,29.00
2016,08,18,13,50,29.00
2016,08,18,13,51,29.10
2016,08,18,13,52,29.10
2016,08,18,13,53,29.20
2016,08,18,13,54,29.20
2016,08,18,13,55,29.20
2016,08,18,13,56,29.20
2016,08,18,13,57,29.10
2016,08,18,13,58,29.10
2016,08,18,13,59,29.10
2016,08,18,14,00,29.20
2016,08,18,14,01,29.20
2016,08,18,14,02,29.20
2016,08,18,14,03,29.20
2016,08,18,14,04,29.20
2016,08,18,14,05,29.20
2016,08,18,14,06,29.20
2016,08,18,14,07,29.20
2016,08,18,14,08,29.20
2016,08,18,14,09,29.20
2016,08,18,14,10,29.20
2016,08,18,14,11,29.20
2016,08,18,14,12,29.20
2016,08,18,14,13,29.20
2016,08,18,14,14,29.30
2016,08,18,14,15,29.20
2016,08,18,14,16,29.20
2016,08,18,14,17,29.20
2016,08,18,14,18,29.10
2016,08,18,14,19,29.00
2016,08,18,14,20,28.90
2016,08,18,14,21,28.90
2016,08,18,14,22,28.90
2016,08,18,14,23,28.90
2016,08,18,14,24,28.90
2016,08,18,14,25,29.00
2016,08,18,14,26,29.00
2016,08,18,14,27,29.00
2016,08,18,14,28,29.10
2016,08,18,14,29,29.10
2016,08,18,14,30,29.10
2016,08,18,14,31,29.10
2016,08,18,14,32,29.10
2016,08,18,14,33,29.10
2016,08,18,14,34,29.20
2016,08,18,14,35,29.20
2016,08,18,14,36,29.20
2016,08,18,14,37,29.20
2016,08,18,14,38,29.10
2016,08,18,14,39,29.10
2016,08,18,14,40,29.10
2016,08,18,14,41,29.20
2016,08,18,14,42,29.20
2016,08,18,14,43,29.20
2016,08,18,14,44,29.20
2016,08,18,14,45,29.30
2016,08,18,14,46,29.30
2016,08,18,14,47,29.30
2016,08,18,14,48,29.30
2016,08,18,14,49,29.40
2016,08,18,14,50,29.40
2016,08,18,14,51,29.40
2016,08,18,14,52,29.50
2016,08,18,14,53,29.50
2016,08,18,14,54,29.40
2016,08,18,14,55,29.40
2016,08,18,14,56,29.40
2016,08,18,14,57,29.40
2016,08,18,14,58,29.40
2016,08,18,14,59,29.40
2016,08,18,15,00,29.50
2016,08,18,15,01,29.60
2016,08,18,15,02,29.60
2016,08,18,15,03,29.60
2016,08,18,15,04,29.60
2016,08,18,15,05,29.50
2016,08,18,15,06,29.50
2016,08,18,15,07,29.50
2016,08,18,15,08,29.40
2016,08,18,15,09,29.50
2016,08,18,15,10,29.60
2016,08,18,15,11,29.60
2016,08,18,15,12,29.60
2016,08,18,15,13,29.60
2016,08,18,15,14,29.60
2016,08,18,15,15,29.60
2016,08,18,15,16,29.60
2016,08,18,15,17,29.60
2016,08,18,15,18,29.60
2016,08,18,15,19,29.60
2016,08,18,15,20,29.60
2016,08,18,15,21,29.60
2016,08,18,15,22,29.70
2016,08,18,15,23,29.70
2016,08,18,15,24,29.70
2016,08,18,15,25,29.70
2016,08,18,15,26,29.70
2016,08,18,15,27,29.60
2016,08,18,15,28,29.60
2016,08,18,15,29,29.60
2016,08,18,15,30,29.60
2016,08,18,15,31,29.60
2016,08,18,15,32,29.60
2016,08,18,15,33,29.50
2016,08,18,15,34,29.40
2016,08,18,15,35,29.40
2016,08,18,15,36,29.40
2016,08,18,15,37,29.40
2016,08,18,15,38,29.50
2016,08,18,15,39,29.50
2016,08,18,15,40,29.50
2016,08,18,15,41,29.50
2016,08,18,15,42,29.40
2016,08,18,15,43,29.40
2016,08,18,15,44,29.30
2016,08,18,15,45,29.30
2016,08,18,15,46,29.30
2016,08,18,15,47,29.30
2016,08,18,15,48,29.20
2016,08,18,15,49,29.10
2016,08,18,15,50,29.20
2016,08,18,15,51,29.20
2016,08,18,15,52,29.20
2016,08,18,15,53,29.20
2016,08,18,15,54,29.20
2016,08,18,15,55,29.20
2016,08,18,15,56,29.20
2016,08,18,15,57,29.30
2016,08,18,15,58,29.30
2016,08,18,15,59,29.30
2016,08,18,16,00,29.20
2016,08,18,16,01,29.20
2016,08,18,16,02,29.10
2016,08,18,16,03,29.10
2016,08,18,16,04,29.10
2016,08,18,16,05,29.10
2016,08,18,16,06,29.10
2016,08,18,16,07,29.10
2016,08,18,16,08,29.10
2016,08,18,16,09,29.10
2016,08,18,16,10,29.00
2016,08,18,16,11,28.90
2016,08,18,16,12,28.90
2016,08,18,16,13,28.90
2016,08,18,16,14,28.90
2016,08,18,16,15,28.90
2016,08,18,16,16,28.80
2016,08,18,16,17,28.80
2016,08,18,16,18,28.80
2016,08,18,16,19,28.80
2016,08,18,16,20,28.80
2016,08,18,16,21,28.80
2016,08,18,16,22,28.80
2016,08,18,16,23,28.80
2016,08,18,16,24,28.80
2016,08,18,16,25,28.70
2016,08,18,16,26,28.80
2016,08,18,16,27,28.70
2016,08,18,16,28,28.80
2016,08,18,16,29,28.80
2016,08,18,16,30,28.80
2016,08,18,16,31,28.80
2016,08,18,16,32,28.80
2016,08,18,16,33,28.90
2016,08,18,16,34,28.90
2016,08,18,16,35,28.90
2016,08,18,16,36,28.90
2016,08,18,16,37,28.90
2016,08,18,16,38,28.90
2016,08,18,16,39,28.90
2016,08,18,16,40,28.90
2016,08,18,16,41,28.90
2016,08,18,16,42,28.80
2016,08,18,16,43,28.80
2016,08,18,16,44,28.90
2016,08,18,16,45,28.90
2016,08,18,16,46,28.90
2016,08,18,16,47,28.90
2016,08,18,16,48,28.90
2016,08,18,16,49,28.90
2016,08,18,16,50,28.90
2016,08,18,16,51,28.90
2016,08,18,16,52,28.90
2016,08,18,16,53,28.80
2016,08,18,16,54,28.70
2016,08,18,16,55,28.60
2016,08,18,16,56,28.60
2016,08,18,16,57,28.60
2016,08,18,16,58,28.60
2016,08,18,16,59,28.60
2016,08,18,17,00,28.60
2016,08,18,17,01,28.70
2016,08,18,17,02,28.70
2016,08,18,17,03,28.70
2016,08,18,17,04,28.70
2016,08,18,17,05,28.70
2016,08,18,17,06,28.70
2016,08,18,17,07,28.70
2016,08,18,17,08,28.60
2016,08,18,17,09,28.60
2016,08,18,17,10,28.60
2016,08,18,17,11,28.50
2016,08,18,17,12,28.50
2016,08,18,17,13,28.40
2016,08,18,17,14,28.30
2016,08,18,17,15,28.20
2016,08,18,17,16,28.10
2016,08,18,17,17,28.10
2016,08,18,17,18,28.20
2016,08,18,17,19,28.10